Santa Maria, CA

3:21 AM PDT on July 26, 2017 (GMT -0700)
Santa Maria Public Airport / Captain G. Allan Hancock Field

Weather History for KSMX - October, 2011

Change the Weather History Date:

Wednesday, October 19, 2011

  Actual Average Record
Temperature  
Mean Temperature 60 °F 61 °F  
Max Temperature 68 °F 73 °F 99 °F (1964)
Min Temperature 52 °F 48 °F 32 °F (1949)
Degree Days  
Heating Degree Days 5 5  
Month to date heating degree days 46 80  
Since 1 July heating degree days 201 297  
Cooling Degree Days 0 1  
Month to date cooling degree days 42 19  
Year to date cooling degree days 101 101  
Growing Degree Days 10 (Base 50)    
Moisture  
Dew Point 53 °F    
Average Humidity 78    
Maximum Humidity 93    
Minimum Humidity 63    
Precipitation  
Precipitation 0.00 in 0.02 in 0.84 in (2004)
Month to date precipitation 0.75 0.26  
Year to date precipitation 11.81 10.16  
Since 1 July precipitation 0.84  
Sea Level Pressure  
Sea Level Pressure 29.97 in    
Wind  
Wind Speed 10 mph (NW)    
Max Wind Speed 23 mph    
Max Gust Speed 29 mph    
Visibility 8 miles    
Events      
T = Trace of Precipitation, MM = Missing Value Source: NWS Daily Summary

Daily Weather History Graph

Daily Weather History Graph

Search for Another Location

Airport or City:

Trip Planner

Search our weather history database for the weather conditions in past years. The results will help you decide how hot, cold, wet, or windy it might be!

Date:

Astronomy

Oct. 19, 2011 Rise Set
Actual Time 7:10 AM PDT 6:22 PM PDT
Civil Twilight 6:45 AM PDT 6:47 PM PDT
Nautical Twilight 6:15 AM PDT 7:17 PM PDT
Astronomical Twilight 5:46 AM PDT 7:46 PM PDT
Moon No Moon Rise 1:39 PM PDT (10/19)
Length of Visible Light 12h 02m
Length of Day
11h 11m
Waning Gibbous, 54% of the Moon is Illuminated
Oct 19
Waning Gibbous
Oct 19
Last Quarter
Oct 26
New
Nov 2
First Quarter
Nov 10
Full

Hourly Weather History & Observations

Time (PDT) Temp. Dew Point Humidity Pressure Visibility Wind Dir Wind Speed Gust Speed Precip Events Conditions
12:51 AM 57.9 °F 54.0 °F 87% 30.03 in 9.0 mi NNW 6.9 mph - N/A   Overcast
1:15 AM 64.4 °F 50.0 °F 59% - - North - - N/A   Unknown
1:51 AM 57.9 °F 54.0 °F 87% 30.02 in 10.0 mi NW 10.4 mph - N/A   Overcast
2:51 AM 57.9 °F 54.0 °F 87% 30.01 in 10.0 mi NNW 6.9 mph - N/A   Overcast
3:51 AM 57.9 °F 54.0 °F 87% 29.99 in 10.0 mi NNW 5.8 mph - N/A   Overcast
4:51 AM 57.9 °F 54.0 °F 87% 29.99 in 10.0 mi North 8.1 mph - N/A   Overcast
5:51 AM 57.9 °F 54.0 °F 87% 29.99 in 10.0 mi NW 6.9 mph - N/A   Overcast
6:51 AM 57.9 °F 53.1 °F 84% 29.99 in 10.0 mi NW 8.1 mph - N/A   Overcast
7:51 AM 57.9 °F 53.1 °F 84% 30.00 in 10.0 mi NNW 6.9 mph - N/A   Overcast
8:51 AM 60.1 °F 54.0 °F 80% 30.00 in 10.0 mi NNW 9.2 mph - N/A   Overcast
9:51 AM 61.0 °F 54.0 °F 78% 30.01 in 9.0 mi WNW 9.2 mph - N/A   Overcast
10:51 AM 64.9 °F 54.0 °F 68% 30.00 in 10.0 mi WNW 13.8 mph - N/A   Mostly Cloudy
11:04 AM 64.4 °F 53.6 °F 68% 29.99 in 10.0 mi WNW 12.7 mph - N/A   Scattered Clouds
11:51 AM 66.0 °F 54.0 °F 65% 29.99 in 10.0 mi WNW 16.1 mph 19.6 mph N/A   Clear
12:51 PM 66.9 °F 54.0 °F 63% 29.97 in 10.0 mi WNW 17.3 mph 24.2 mph N/A   Clear
1:51 PM 68.0 °F 54.0 °F 61% 29.95 in 9.0 mi West 20.7 mph - N/A   Clear
2:51 PM 66.9 °F 53.1 °F 61% 29.94 in 9.0 mi WNW 19.6 mph - N/A   Clear
3:51 PM 64.9 °F 53.1 °F 65% 29.93 in 8.0 mi WNW 20.7 mph 25.3 mph N/A   Clear
4:51 PM 64.0 °F 53.1 °F 67% 29.92 in 8.0 mi WNW 17.3 mph - N/A   Clear
5:51 PM 60.1 °F 53.1 °F 78% 29.92 in 7.0 mi NNW 13.8 mph 28.8 mph N/A   Clear
6:51 PM 57.9 °F 52.0 °F 81% 29.93 in 7.0 mi WNW 13.8 mph - N/A   Clear
7:51 PM 57.0 °F 53.1 °F 87% 29.94 in 6.0 mi WNW 10.4 mph - N/A   Clear
8:51 PM 55.0 °F 52.0 °F 89% 29.95 in 6.0 mi WNW 4.6 mph - N/A   Clear
9:51 PM 53.1 °F 50.0 °F 89% 29.96 in 4.0 mi Calm Calm - N/A   Clear
10:51 PM 53.1 °F 50.0 °F 89% 29.97 in 3.0 mi West 3.5 mph - N/A   Clear
10:55 PM 53.6 °F 50.0 °F 88% 29.96 in 1.8 mi West 3.5 mph - N/A   Partly Cloudy
11:14 PM 53.6 °F 51.8 °F 94% 29.96 in 2.0 mi Calm Calm - N/A   Mostly Cloudy
11:19 PM 53.6 °F 51.8 °F 94% 29.96 in 3.0 mi Calm Calm - N/A   Mostly Cloudy
11:41 PM 53.6 °F 51.8 °F 94% 29.96 in 4.0 mi Calm Calm - N/A   Overcast
11:51 PM 54.0 °F 52.0 °F 93% 29.96 in 4.0 mi South 3.5 mph - N/A   Overcast